Location: Brede
(50.9167°N, 0.6000°E)
Time: 01:58:44
(UTC+00:00)

Cosmos 2227 Rocket - Pass Details

Date: 08 August 2020
Orbit: 840 x 844 km, 71.0° (Epoch: 19 September)

Event Time Altitude Azimuth Distance (km) Brightness Sun altitude
Exits shadow 01:18:30 33° 156° (SSE) 1,399 2.9 -21.0°
Maximum altitude 01:20:28 45° 110° (ESE) 1,143 2.8 -20.9°
Drops below altitude 10° 01:25:50 10° 39° (NE) 2,474 5.7 -20.6°
Sets 01:28:22 0° 34° (NNE) 3,412 6.8 -20.5°
